Time,TemperatureF,DewpointF,PressureIn,WindDirection,WindDirectionDegrees,WindSpeedMPH,WindSpeedGustMPH,Humidity,HourlyPrecipIn,Conditions,Clouds,dailyrainin,SoftwareType,DateUTC
2013-05-20 00:00:00,60.4,59.5,30.06,NE,40,0.0,0.0,97,0.00,,,0.00,meteohub,2013-05-20 04:00:00,
2013-05-20 00:01:00,60.4,59.5,30.06,NE,40,0.0,0.0,97,0.00,,,0.00,meteohub,2013-05-20 04:01:00,
2013-05-20 00:02:00,60.4,59.5,30.06,NE,40,0.0,0.0,97,0.00,,,0.00,meteohub,2013-05-20 04:02:00,
2013-05-20 00:07:00,60.4,59.5,30.05,NE,40,0.0,0.0,97,0.00,,,0.00,meteohub,2013-05-20 04:07:00,
2013-05-20 00:12:00,60.6,59.7,30.05,NE,40,0.0,0.0,97,0.00,,,0.00,meteohub,2013-05-20 04:12:00,
2013-05-20 00:17:00,60.4,59.5,30.05,NE,39,0.0,0.0,97,0.00,,,0.00,meteohub,2013-05-20 04:17:00,
2013-05-20 00:22:00,60.6,59.7,30.05,NE,40,0.0,0.0,97,0.00,,,0.00,meteohub,2013-05-20 04:22:00,
2013-05-20 00:27:00,60.6,59.7,30.05,NE,40,0.0,0.0,97,0.00,,,0.00,meteohub,2013-05-20 04:27:00,
2013-05-20 00:32:00,60.6,59.7,30.05,NE,40,0.0,0.0,97,0.00,,,0.00,meteohub,2013-05-20 04:32:00,
2013-05-20 00:37:00,60.6,59.7,30.05,NE,40,0.0,0.0,97,0.00,,,0.00,meteohub,2013-05-20 04:37:00,
2013-05-20 00:42:00,60.6,59.7,30.05,NE,40,0.0,0.0,97,0.00,,,0.00,meteohub,2013-05-20 04:42:00,
2013-05-20 00:47:00,60.6,59.7,30.05,NE,39,0.0,0.0,97,0.00,,,0.00,meteohub,2013-05-20 04:47:00,
2013-05-20 00:52:00,60.4,59.5,30.06,NE,39,0.0,0.0,97,0.00,,,0.00,meteohub,2013-05-20 04:52:00,
2013-05-20 00:58:00,60.4,59.5,30.06,WNW,284,0.0,0.0,97,0.00,,,0.00,meteohub,2013-05-20 04:58:00,
2013-05-20 01:03:00,60.3,59.4,30.06,SW,226,0.0,0.0,97,0.00,,,0.00,meteohub,2013-05-20 05:03:00,
2013-05-20 01:08:00,60.3,59.4,30.06,SW,224,0.0,0.0,97,0.00,,,0.00,meteohub,2013-05-20 05:08:00,
2013-05-20 01:13:00,60.3,59.4,30.06,SW,224,0.0,0.0,97,0.00,,,0.00,meteohub,2013-05-20 05:13:00,
2013-05-20 01:18:00,60.1,59.2,30.06,SW,225,0.0,0.0,97,0.00,,,0.00,meteohub,2013-05-20 05:18:00,
2013-05-20 01:23:00,60.1,59.2,30.05,SW,224,0.0,0.0,97,0.00,,,0.00,meteohub,2013-05-20 05:23:00,
2013-05-20 01:28:00,60.1,59.2,30.05,SW,224,0.0,0.0,97,0.00,,,0.00,meteohub,2013-05-20 05:28:00,
2013-05-20 01:33:00,60.1,59.2,30.05,SW,224,0.0,0.0,97,0.00,,,0.00,meteohub,2013-05-20 05:33:00,
2013-05-20 01:38:00,60.1,59.2,30.05,SW,224,0.0,0.0,97,0.00,,,0.00,meteohub,2013-05-20 05:38:00,
2013-05-20 01:43:00,59.9,59.0,30.05,SW,224,0.0,0.0,97,0.00,,,0.00,meteohub,2013-05-20 05:43:00,
2013-05-20 01:48:00,59.7,58.8,30.05,SW,224,0.0,0.0,97,0.00,,,0.00,meteohub,2013-05-20 05:48:00,
2013-05-20 01:53:00,59.5,58.6,30.05,SW,224,0.0,0.0,97,0.00,,,0.00,meteohub,2013-05-20 05:53:00,
2013-05-20 01:58:00,59.5,58.6,30.05,SW,224,0.0,0.0,97,0.00,,,0.00,meteohub,2013-05-20 05:58:00,
2013-05-20 02:03:00,59.4,58.5,30.05,SW,225,0.0,0.0,97,0.00,,,0.00,meteohub,2013-05-20 06:03:00,
2013-05-20 02:08:00,59.4,58.5,30.05,SW,224,0.0,0.0,97,0.00,,,0.00,meteohub,2013-05-20 06:08:00,
2013-05-20 02:13:00,59.2,58.3,30.05,SW,225,0.0,0.0,97,0.00,,,0.00,meteohub,2013-05-20 06:13:00,
2013-05-20 02:18:00,59.2,58.3,30.05,SW,224,0.0,0.0,97,0.00,,,0.00,meteohub,2013-05-20 06:18:00,
2013-05-20 02:23:00,59.0,58.1,30.05,SW,224,0.0,0.0,97,0.00,,,0.00,meteohub,2013-05-20 06:23:00,
2013-05-20 02:28:00,58.8,57.9,30.05,SW,224,0.0,0.0,97,0.00,,,0.00,meteohub,2013-05-20 06:28:00,
2013-05-20 02:33:00,58.6,57.7,30.05,SSW,205,0.0,0.0,97,0.00,,,0.00,meteohub,2013-05-20 06:33:00,
2013-05-20 02:38:00,58.5,57.6,30.05,SSW,205,0.0,0.0,97,0.00,,,0.00,meteohub,2013-05-20 06:38:00,
2013-05-20 02:43:00,58.3,57.4,30.05,SSW,205,0.0,0.0,97,0.00,,,0.00,meteohub,2013-05-20 06:43:00,
2013-05-20 02:48:00,58.1,57.2,30.05,SSW,205,0.0,0.0,97,0.00,,,0.00,meteohub,2013-05-20 06:48:00,
2013-05-20 02:53:00,57.9,57.0,30.05,SSW,205,0.0,0.0,97,0.00,,,0.00,meteohub,2013-05-20 06:53:00,
2013-05-20 02:58:00,57.9,57.0,30.05,SSW,205,0.0,0.0,97,0.00,,,0.00,meteohub,2013-05-20 06:58:00,
2013-05-20 03:03:00,57.9,57.0,30.05,SSW,205,0.0,0.0,97,0.00,,,0.00,meteohub,2013-05-20 07:03:00,
2013-05-20 03:08:00,57.9,57.4,30.05,SSW,205,0.0,0.0,98,0.00,,,0.00,meteohub,2013-05-20 07:08:00,
2013-05-20 03:13:00,57.9,57.4,30.05,SSW,205,0.0,0.0,98,0.00,,,0.00,meteohub,2013-05-20 07:13:00,
2013-05-20 03:18:00,57.9,57.4,30.05,SSW,206,0.0,0.0,98,0.00,,,0.00,meteohub,2013-05-20 07:18:00,
2013-05-20 03:23:00,57.9,57.4,30.05,SSW,205,0.0,0.0,98,0.00,,,0.00,meteohub,2013-05-20 07:23:00,
2013-05-20 03:28:00,57.9,57.4,30.05,SSW,205,0.0,0.0,98,0.00,,,0.00,meteohub,2013-05-20 07:28:00,
2013-05-20 03:34:00,57.9,57.4,30.06,SSW,205,0.0,0.0,98,0.00,,,0.00,meteohub,2013-05-20 07:34:00,
2013-05-20 03:39:00,58.1,57.6,30.06,SSW,206,0.0,0.0,98,0.00,,,0.00,meteohub,2013-05-20 07:39:00,
2013-05-20 03:44:00,58.1,57.6,30.06,SSW,205,0.0,0.0,98,0.00,,,0.00,meteohub,2013-05-20 07:44:00,
2013-05-20 03:49:00,58.3,57.7,30.06,SSW,206,0.0,0.0,98,0.00,,,0.00,meteohub,2013-05-20 07:49:00,
2013-05-20 03:54:00,58.3,57.7,30.06,SSW,205,0.0,0.0,98,0.00,,,0.00,meteohub,2013-05-20 07:54:00,
2013-05-20 03:59:00,58.3,57.7,30.06,SSW,205,0.0,0.0,98,0.00,,,0.00,meteohub,2013-05-20 07:59:00,
2013-05-20 04:04:00,58.5,57.9,30.06,SSW,205,0.0,0.0,98,0.00,,,0.00,meteohub,2013-05-20 08:04:00,
2013-05-20 04:09:00,58.6,58.1,30.06,SSW,205,0.0,0.0,98,0.00,,,0.00,meteohub,2013-05-20 08:09:00,
2013-05-20 04:14:00,58.6,58.1,30.06,SSW,205,0.0,0.0,98,0.00,,,0.00,meteohub,2013-05-20 08:14:00,
2013-05-20 04:19:00,58.5,57.9,30.06,SSW,206,0.0,0.0,98,0.00,,,0.00,meteohub,2013-05-20 08:19:00,
2013-05-20 04:24:00,58.6,58.1,30.06,SSW,206,0.0,0.0,98,0.00,,,0.00,meteohub,2013-05-20 08:24:00,
2013-05-20 04:29:00,58.6,58.1,30.06,SSW,205,0.0,0.0,98,0.00,,,0.00,meteohub,2013-05-20 08:29:00,
2013-05-20 04:34:00,58.6,58.1,30.05,SSW,205,0.0,0.0,98,0.00,,,0.00,meteohub,2013-05-20 08:34:00,
2013-05-20 04:39:00,59.0,58.5,30.05,SSW,205,0.0,0.0,98,0.00,,,0.00,meteohub,2013-05-20 08:39:00,
2013-05-20 04:44:00,59.2,58.6,30.05,SSW,208,0.0,0.0,98,0.00,,,0.00,meteohub,2013-05-20 08:44:00,
2013-05-20 04:49:00,59.2,58.6,30.05,SW,225,0.0,0.0,98,0.00,,,0.00,meteohub,2013-05-20 08:49:00,
2013-05-20 04:54:00,59.4,58.8,30.05,WSW,246,0.0,1.0,98,0.00,,,0.00,meteohub,2013-05-20 08:54:00,
2013-05-20 04:59:00,59.2,58.6,30.05,WSW,247,0.0,3.0,98,0.00,,,0.00,meteohub,2013-05-20 08:59:00,
2013-05-20 05:04:00,59.0,58.5,30.05,WSW,246,0.0,3.0,98,0.00,,,0.00,meteohub,2013-05-20 09:04:00,
2013-05-20 05:09:00,59.0,58.5,30.05,WSW,246,0.0,3.0,98,0.00,,,0.00,meteohub,2013-05-20 09:09:00,
2013-05-20 05:14:00,58.8,58.3,30.04,WSW,246,0.0,0.0,98,0.00,,,0.00,meteohub,2013-05-20 09:14:00,
2013-05-20 05:19:00,58.8,58.3,30.04,WSW,246,0.0,0.0,98,0.00,,,0.00,meteohub,2013-05-20 09:19:00,
2013-05-20 05:24:00,58.8,58.3,30.04,WSW,246,0.0,0.0,98,0.00,,,0.00,meteohub,2013-05-20 09:24:00,
2013-05-20 05:29:00,58.8,58.3,30.04,WSW,246,0.0,0.0,98,0.00,,,0.00,meteohub,2013-05-20 09:29:00,
2013-05-20 05:34:00,58.8,58.3,30.04,WSW,246,0.0,0.0,98,0.00,,,0.00,meteohub,2013-05-20 09:34:00,
2013-05-20 05:39:00,58.8,58.3,30.04,WSW,246,0.0,0.0,98,0.00,,,0.00,meteohub,2013-05-20 09:39:00,
2013-05-20 05:44:00,58.6,58.1,30.04,WSW,246,0.0,0.0,98,0.00,,,0.00,meteohub,2013-05-20 09:44:00,
2013-05-20 05:49:00,58.5,57.9,30.04,WSW,246,0.0,0.0,98,0.00,,,0.00,meteohub,2013-05-20 09:49:00,
2013-05-20 05:54:00,58.5,57.9,30.04,WSW,246,0.0,0.0,98,0.00,,,0.00,meteohub,2013-05-20 09:54:00,
2013-05-20 05:59:00,58.3,57.7,30.04,WSW,246,0.0,0.0,98,0.00,,,0.00,meteohub,2013-05-20 09:59:00,
2013-05-20 06:05:00,57.9,57.4,30.04,WSW,246,0.0,0.0,98,0.00,,,0.00,meteohub,2013-05-20 10:05:00,
2013-05-20 06:10:00,57.9,57.4,30.04,WSW,246,0.0,0.0,98,0.00,,,0.00,meteohub,2013-05-20 10:10:00,
2013-05-20 06:15:00,57.7,57.2,30.04,WSW,246,0.0,0.0,98,0.00,,,0.00,meteohub,2013-05-20 10:15:00,
2013-05-20 06:20:00,57.7,57.2,30.04,WSW,247,0.0,0.0,98,0.00,,,0.00,meteohub,2013-05-20 10:20:00,
2013-05-20 06:25:00,57.6,57.0,30.05,WSW,246,0.0,0.0,98,0.00,,,0.00,meteohub,2013-05-20 10:25:00,
2013-05-20 06:30:00,57.6,57.0,30.05,WSW,246,0.0,0.0,98,0.00,,,0.00,meteohub,2013-05-20 10:30:00,
2013-05-20 06:35:00,57.6,57.0,30.06,WSW,246,0.0,0.0,98,0.00,,,0.00,meteohub,2013-05-20 10:35:00,
2013-05-20 06:40:00,57.6,57.0,30.06,WSW,246,0.0,0.0,98,0.00,,,0.00,meteohub,2013-05-20 10:40:00,
2013-05-20 06:45:00,57.4,56.8,30.06,WSW,246,0.0,0.0,98,0.00,,,0.00,meteohub,2013-05-20 10:45:00,
2013-05-20 06:50:00,57.4,56.8,30.06,WSW,246,0.0,0.0,98,0.00,,,0.00,meteohub,2013-05-20 10:50:00,
2013-05-20 06:55:00,57.2,56.7,30.06,WSW,247,0.0,0.0,98,0.00,,,0.00,meteohub,2013-05-20 10:55:00,
2013-05-20 07:00:00,57.0,56.5,30.06,WSW,246,0.0,0.0,98,0.00,,,0.00,meteohub,2013-05-20 11:00:00,
2013-05-20 07:05:00,57.0,56.5,30.06,WSW,246,0.0,0.0,98,0.00,,,0.00,meteohub,2013-05-20 11:05:00,
2013-05-20 07:10:00,57.4,56.8,30.07,WSW,246,0.0,0.0,98,0.00,,,0.00,meteohub,2013-05-20 11:10:00,
2013-05-20 07:15:00,57.4,56.8,30.07,WSW,245,0.0,0.0,98,0.00,,,0.00,meteohub,2013-05-20 11:15:00,
2013-05-20 07:20:00,57.6,57.0,30.08,WSW,246,0.0,0.0,98,0.00,,,0.00,meteohub,2013-05-20 11:20:00,
2013-05-20 07:25:00,57.7,57.2,30.07,SW,221,0.0,0.0,98,0.00,,,0.00,meteohub,2013-05-20 11:25:00,
2013-05-20 07:30:00,57.9,57.4,30.08,SW,221,1.0,1.0,98,0.00,,,0.00,meteohub,2013-05-20 11:30:00,
2013-05-20 07:35:00,57.9,57.4,30.08,NNE,29,0.0,1.0,98,0.00,,,0.00,meteohub,2013-05-20 11:35:00,
2013-05-20 07:40:00,58.3,57.7,30.09,NNE,29,0.0,1.0,98,0.00,,,0.00,meteohub,2013-05-20 11:40:00,
2013-05-20 07:45:00,58.1,57.6,30.08,NE,49,0.0,1.0,98,0.00,,,0.00,meteohub,2013-05-20 11:45:00,
2013-05-20 07:50:00,58.1,57.6,30.09,NE,49,0.0,1.0,98,0.00,,,0.00,meteohub,2013-05-20 11:50:00,
2013-05-20 07:55:00,58.3,57.7,30.09,NE,49,0.0,0.0,98,0.00,,,0.00,meteohub,2013-05-20 11:55:00,
2013-05-20 08:00:00,58.5,57.9,30.08,NE,50,0.0,0.0,98,0.00,,,0.00,meteohub,2013-05-20 12:00:00,
2013-05-20 08:05:00,59.0,58.5,30.08,ENE,68,0.0,0.0,98,0.00,,,0.00,meteohub,2013-05-20 12:05:00,
2013-05-20 08:10:00,59.2,58.6,30.08,ENE,67,0.0,0.0,98,0.00,,,0.00,meteohub,2013-05-20 12:10:00,
2013-05-20 08:15:00,59.4,58.8,30.09,ENE,67,0.0,0.0,98,0.00,,,0.00,meteohub,2013-05-20 12:15:00,
2013-05-20 08:20:00,59.7,59.2,30.09,ENE,66,0.0,0.0,98,0.00,,,0.00,meteohub,2013-05-20 12:20:00,
2013-05-20 08:25:00,59.9,59.4,30.09,East,85,0.0,0.0,98,0.00,,,0.00,meteohub,2013-05-20 12:25:00,
2013-05-20 08:30:00,59.5,59.0,30.09,NE,43,0.0,0.0,98,0.00,,,0.00,meteohub,2013-05-20 12:30:00,
2013-05-20 08:36:00,59.7,59.2,30.10,NNE,23,0.0,1.0,98,0.00,,,0.00,meteohub,2013-05-20 12:36:00,
2013-05-20 08:41:00,59.7,59.2,30.09,NNE,23,0.0,1.0,98,0.00,,,0.00,meteohub,2013-05-20 12:41:00,
2013-05-20 08:46:00,60.1,59.5,30.10,NNE,30,0.0,1.0,98,0.00,,,0.00,meteohub,2013-05-20 12:46:00,
2013-05-20 08:51:00,60.1,59.2,30.09,NNE,33,1.0,2.0,97,0.00,,,0.00,meteohub,2013-05-20 12:51:00,
2013-05-20 08:56:00,60.3,59.4,30.09,NE,44,0.0,2.0,97,0.00,,,0.00,meteohub,2013-05-20 12:56:00,
2013-05-20 09:01:00,60.6,60.1,30.10,NE,43,0.0,1.0,98,0.00,,,0.00,meteohub,2013-05-20 13:01:00,
2013-05-20 09:06:00,61.3,60.8,30.10,NE,43,0.0,1.0,98,0.00,,,0.00,meteohub,2013-05-20 13:06:00,
2013-05-20 09:11:00,62.1,61.5,30.10,NE,43,0.0,1.0,98,0.00,,,0.00,meteohub,2013-05-20 13:11:00,
2013-05-20 09:16:00,63.0,62.4,30.10,NE,49,0.0,1.0,98,0.00,,,0.00,meteohub,2013-05-20 13:16:00,
2013-05-20 09:21:00,64.2,63.3,30.10,NE,49,0.0,1.0,97,0.00,,,0.00,meteohub,2013-05-20 13:21:00,
2013-05-20 09:26:00,65.7,64.2,30.09,NE,49,0.0,1.0,95,0.00,,,0.00,meteohub,2013-05-20 13:26:00,
2013-05-20 09:31:00,66.0,62.6,30.09,NNE,33,2.0,2.0,89,0.00,,,0.00,meteohub,2013-05-20 13:31:00,
2013-05-20 09:36:00,66.7,63.3,30.09,ENE,63,0.0,3.0,89,0.00,,,0.00,meteohub,2013-05-20 13:36:00,
2013-05-20 09:41:00,67.5,63.9,30.10,SE,132,0.0,3.0,88,0.00,,,0.00,meteohub,2013-05-20 13:41:00,
2013-05-20 09:46:00,68.4,62.6,30.09,SSW,193,2.0,4.0,82,0.00,,,0.00,meteohub,2013-05-20 13:46:00,
2013-05-20 09:51:00,69.1,63.3,30.09,ENE,63,0.0,4.0,82,0.00,,,0.00,meteohub,2013-05-20 13:51:00,
2013-05-20 09:56:00,70.2,64.0,30.10,SW,236,0.0,4.0,81,0.00,,,0.00,meteohub,2013-05-20 13:56:00,
2013-05-20 10:01:00,71.2,64.0,30.10,WNW,285,0.0,4.0,78,0.00,,,0.00,meteohub,2013-05-20 14:01:00,
2013-05-20 10:06:00,72.1,64.2,30.09,SE,129,0.0,1.0,76,0.00,,,0.00,meteohub,2013-05-20 14:06:00,
2013-05-20 10:11:00,73.0,64.9,30.09,SE,127,0.0,1.0,76,0.00,,,0.00,meteohub,2013-05-20 14:11:00,
2013-05-20 10:16:00,73.2,63.3,30.10,ESE,105,0.0,1.0,71,0.00,,,0.00,meteohub,2013-05-20 14:16:00,
2013-05-20 10:21:00,72.7,61.5,30.10,WNW,285,1.0,1.0,68,0.00,,,0.00,meteohub,2013-05-20 14:21:00,
2013-05-20 10:26:00,72.1,62.6,30.10,South,177,0.0,1.0,72,0.00,,,0.00,meteohub,2013-05-20 14:26:00,
2013-05-20 10:31:00,72.9,61.7,30.10,ENE,61,0.0,2.0,68,0.00,,,0.00,meteohub,2013-05-20 14:31:00,
2013-05-20 10:36:00,72.9,62.4,30.10,NNE,20,0.0,2.0,70,0.00,,,0.00,meteohub,2013-05-20 14:36:00,
2013-05-20 10:41:00,72.3,62.1,30.10,East,98,0.0,3.0,70,0.00,,,0.00,meteohub,2013-05-20 14:41:00,
2013-05-20 10:46:00,72.0,61.7,30.10,East,93,1.0,3.0,70,0.00,,,0.00,meteohub,2013-05-20 14:46:00,
2013-05-20 10:51:00,71.6,61.7,30.10,NW,305,0.0,4.0,71,0.00,,,0.00,meteohub,2013-05-20 14:51:00,
2013-05-20 10:56:00,72.0,62.1,30.10,NNE,13,0.0,4.0,71,0.00,,,0.00,meteohub,2013-05-20 14:56:00,
2013-05-20 11:01:00,72.7,63.1,30.10,ENE,67,0.0,4.0,72,0.00,,,0.00,meteohub,2013-05-20 15:01:00,
2013-05-20 11:06:00,72.9,62.4,30.10,NE,43,0.0,3.0,70,0.00,,,0.00,meteohub,2013-05-20 15:06:00,
2013-05-20 11:11:00,73.2,62.1,30.10,SSW,204,1.0,3.0,68,0.00,,,0.00,meteohub,2013-05-20 15:11:00,
2013-05-20 11:16:00,73.8,62.6,30.10,NNE,20,0.0,3.0,68,0.00,,,0.00,meteohub,2013-05-20 15:16:00,
2013-05-20 11:22:00,74.1,63.7,30.09,SW,229,1.0,3.0,70,0.00,,,0.00,meteohub,2013-05-20 15:22:00,
2013-05-20 11:27:00,74.1,63.0,30.10,NNE,27,4.0,4.0,68,0.00,,,0.00,meteohub,2013-05-20 15:27:00,
2013-05-20 11:32:00,73.2,62.8,30.10,NNE,23,5.0,6.0,70,0.00,,,0.00,meteohub,2013-05-20 15:32:00,
2013-05-20 11:37:00,73.2,63.3,30.09,East,80,1.0,6.0,71,0.00,,,0.00,meteohub,2013-05-20 15:37:00,
2013-05-20 11:42:00,72.9,62.4,30.09,ENE,60,3.0,6.0,70,0.00,,,0.00,meteohub,2013-05-20 15:42:00,
2013-05-20 11:47:00,73.0,62.6,30.09,NNE,32,5.0,8.0,70,0.00,,,0.00,meteohub,2013-05-20 15:47:00,
2013-05-20 11:52:00,73.2,62.8,30.09,North,5,1.0,8.0,70,0.00,,,0.00,meteohub,2013-05-20 15:52:00,
2013-05-20 11:57:00,73.8,63.0,30.09,NE,52,0.0,8.0,69,0.00,,,0.00,meteohub,2013-05-20 15:57:00,
2013-05-20 12:02:00,73.6,62.8,30.09,NE,41,3.0,6.0,69,0.00,,,0.00,meteohub,2013-05-20 16:02:00,
2013-05-20 12:07:00,73.0,62.6,30.09,NNE,27,1.0,5.0,70,0.00,,,0.00,meteohub,2013-05-20 16:07:00,
2013-05-20 12:12:00,73.0,62.6,30.09,NE,51,1.0,5.0,70,0.00,,,0.00,meteohub,2013-05-20 16:12:00,
2013-05-20 12:17:00,73.6,64.4,30.09,SSE,158,0.0,5.0,73,0.00,,,0.00,meteohub,2013-05-20 16:17:00,
2013-05-20 12:22:00,73.4,64.6,30.09,NE,44,0.0,2.0,74,0.00,,,0.00,meteohub,2013-05-20 16:22:00,
2013-05-20 12:27:00,73.0,64.9,30.09,ENE,74,1.0,3.0,76,0.00,,,0.00,meteohub,2013-05-20 16:27:00,
2013-05-20 12:32:00,72.3,64.8,30.09,North,11,0.0,3.0,77,0.00,,,0.00,meteohub,2013-05-20 16:32:00,
2013-05-20 12:37:00,72.1,65.3,30.08,NW,323,0.0,3.0,79,0.00,,,0.00,meteohub,2013-05-20 16:37:00,
2013-05-20 12:42:00,72.9,65.7,30.08,WSW,238,0.0,2.0,78,0.00,,,0.00,meteohub,2013-05-20 16:42:00,
2013-05-20 12:47:00,73.0,65.5,30.08,NE,53,0.0,8.0,77,0.00,,,0.00,meteohub,2013-05-20 16:47:00,
2013-05-20 12:52:00,73.8,65.7,30.08,North,7,4.0,8.0,76,0.00,,,0.00,meteohub,2013-05-20 16:52:00,
2013-05-20 12:57:00,74.5,66.0,30.07,NNW,330,0.0,8.0,75,0.00,,,0.00,meteohub,2013-05-20 16:57:00,
2013-05-20 13:02:00,75.4,66.2,30.07,NNE,33,1.0,6.0,73,0.00,,,0.00,meteohub,2013-05-20 17:02:00,
2013-05-20 13:07:00,75.0,64.9,30.08,NNW,332,1.0,6.0,71,0.00,,,0.00,meteohub,2013-05-20 17:07:00,
2013-05-20 13:12:00,74.1,64.9,30.08,North,9,0.0,9.0,73,0.00,,,0.00,meteohub,2013-05-20 17:12:00,
2013-05-20 13:17:00,73.8,65.3,30.08,East,87,0.0,9.0,75,0.00,,,0.00,meteohub,2013-05-20 17:17:00,
2013-05-20 13:22:00,73.2,65.1,30.08,West,277,0.0,9.0,76,0.00,,,0.00,meteohub,2013-05-20 17:22:00,
2013-05-20 13:27:00,72.7,65.5,30.08,SSW,192,0.0,2.0,78,0.00,,,0.00,meteohub,2013-05-20 17:27:00,
2013-05-20 13:32:00,72.3,65.5,30.08,NW,307,0.0,3.0,79,0.00,,,0.00,meteohub,2013-05-20 17:32:00,
2013-05-20 13:37:00,72.1,65.7,30.07,WNW,297,0.0,3.0,80,0.00,,,0.00,meteohub,2013-05-20 17:37:00,
2013-05-20 13:42:00,72.9,66.4,30.07,SW,218,2.0,4.0,80,0.00,,,0.00,meteohub,2013-05-20 17:42:00,
2013-05-20 13:47:00,73.8,66.0,30.07,NNW,338,1.0,4.0,77,0.00,,,0.00,meteohub,2013-05-20 17:47:00,
2013-05-20 13:52:00,74.5,66.4,30.07,South,169,2.0,4.0,76,0.00,,,0.00,meteohub,2013-05-20 17:52:00,
2013-05-20 13:57:00,75.0,67.3,30.07,West,280,3.0,8.0,77,0.00,,,0.00,meteohub,2013-05-20 17:57:00,
2013-05-20 14:02:00,75.2,66.4,30.06,WNW,298,2.0,8.0,74,0.00,,,0.00,meteohub,2013-05-20 18:02:00,
2013-05-20 14:07:00,74.7,65.8,30.07,WSW,257,0.0,8.0,74,0.00,,,0.00,meteohub,2013-05-20 18:07:00,
2013-05-20 14:12:00,73.0,64.9,30.06,WNW,283,1.0,5.0,76,0.00,,,0.00,meteohub,2013-05-20 18:12:00,
2013-05-20 14:17:00,72.0,65.1,30.06,West,274,1.0,5.0,79,0.00,,,0.00,meteohub,2013-05-20 18:17:00,
2013-05-20 14:22:00,71.1,64.9,30.06,NW,323,2.0,5.0,81,0.00,,,0.00,meteohub,2013-05-20 18:22:00,
2013-05-20 14:27:00,70.3,64.6,30.07,West,277,1.0,5.0,82,0.00,,,0.00,meteohub,2013-05-20 18:27:00,
2013-05-20 14:32:00,69.6,64.6,30.06,SW,214,7.0,7.0,84,0.00,,,0.00,meteohub,2013-05-20 18:32:00,
2013-05-20 14:37:00,69.3,64.6,30.07,NNW,328,0.0,8.0,85,0.00,,,0.00,meteohub,2013-05-20 18:37:00,
2013-05-20 14:42:00,68.9,64.6,30.07,WNW,288,0.0,8.0,86,0.00,,,0.00,meteohub,2013-05-20 18:42:00,
2013-05-20 14:47:00,68.7,64.8,30.07,SSW,207,6.0,7.0,87,0.00,,,0.00,meteohub,2013-05-20 18:47:00,
2013-05-20 14:52:00,68.5,64.6,30.07,NW,324,1.0,7.0,87,0.00,,,0.00,meteohub,2013-05-20 18:52:00,
2013-05-20 14:57:00,68.5,64.6,30.06,West,277,0.0,7.0,87,0.00,,,0.00,meteohub,2013-05-20 18:57:00,
2013-05-20 15:02:00,69.1,65.3,30.06,WNW,296,0.0,7.0,88,0.00,,,0.00,meteohub,2013-05-20 19:02:00,
2013-05-20 15:07:00,69.3,65.3,30.06,North,7,3.0,6.0,87,0.00,,,0.00,meteohub,2013-05-20 19:07:00,
2013-05-20 15:12:00,69.3,65.3,30.06,West,270,0.0,4.0,87,0.00,,,0.00,meteohub,2013-05-20 19:12:00,
2013-05-20 15:17:00,69.6,65.7,30.05,ENE,58,0.0,4.0,87,0.00,,,0.00,meteohub,2013-05-20 19:17:00,
2013-05-20 15:22:00,70.3,65.7,30.05,SW,231,0.0,9.0,85,0.00,,,0.00,meteohub,2013-05-20 19:22:00,
2013-05-20 15:27:00,70.2,65.1,30.05,SSW,212,3.0,9.0,84,0.00,,,0.00,meteohub,2013-05-20 19:27:00,
2013-05-20 15:32:00,69.8,65.1,30.05,South,181,0.0,9.0,85,0.00,,,0.00,meteohub,2013-05-20 19:32:00,
2013-05-20 15:37:00,69.6,64.9,30.06,WSW,252,0.0,9.0,85,0.00,,,0.00,meteohub,2013-05-20 19:37:00,
2013-05-20 15:42:00,69.4,64.8,30.06,NNE,18,0.0,5.0,85,0.00,,,0.00,meteohub,2013-05-20 19:42:00,
2013-05-20 15:47:00,69.4,65.1,30.06,NNE,18,0.0,5.0,86,0.00,,,0.00,meteohub,2013-05-20 19:47:00,
2013-05-20 15:52:00,69.3,64.9,30.06,SSW,212,0.0,4.0,86,0.00,,,0.00,meteohub,2013-05-20 19:52:00,
2013-05-20 15:57:00,68.9,64.9,30.06,SW,236,0.0,3.0,87,0.00,,,0.00,meteohub,2013-05-20 19:57:00,
2013-05-20 16:02:00,68.5,64.8,30.06,West,262,0.0,3.0,88,0.00,,,0.00,meteohub,2013-05-20 20:02:00,
2013-05-20 16:07:00,68.4,64.9,30.06,SSE,165,1.0,1.0,89,0.00,,,0.00,meteohub,2013-05-20 20:07:00,
2013-05-20 16:12:00,68.2,65.1,30.05,WSW,248,0.0,2.0,90,0.01,,,0.01,meteohub,2013-05-20 20:12:00,
2013-05-20 16:17:00,67.8,65.1,30.05,WNW,287,0.0,2.0,91,0.01,,,0.01,meteohub,2013-05-20 20:17:00,
2013-05-20 16:22:00,67.6,64.9,30.06,West,262,0.0,2.0,91,0.01,,,0.01,meteohub,2013-05-20 20:22:00,
2013-05-20 16:27:00,67.5,65.1,30.05,SW,232,0.0,1.0,92,0.02,,,0.02,meteohub,2013-05-20 20:27:00,
2013-05-20 16:32:00,67.3,64.9,30.05,NNW,333,0.0,1.0,92,0.02,,,0.02,meteohub,2013-05-20 20:32:00,
2013-05-20 16:37:00,66.9,64.6,30.05,NNW,333,0.0,1.0,92,0.02,,,0.02,meteohub,2013-05-20 20:37:00,
2013-05-20 16:42:00,66.7,64.6,30.05,North,1,0.0,1.0,93,0.02,,,0.02,meteohub,2013-05-20 20:42:00,
2013-05-20 16:47:00,66.7,64.9,30.05,North,9,0.0,1.0,94,0.02,,,0.02,meteohub,2013-05-20 20:47:00,
2013-05-20 16:52:00,66.6,64.8,30.06,North,9,0.0,1.0,94,0.02,,,0.02,meteohub,2013-05-20 20:52:00,
2013-05-20 16:57:00,66.4,64.6,30.05,North,9,0.0,1.0,94,0.02,,,0.02,meteohub,2013-05-20 20:57:00,
2013-05-20 17:02:00,66.4,64.6,30.05,North,7,0.0,0.0,94,0.02,,,0.02,meteohub,2013-05-20 21:02:00,
2013-05-20 17:07:00,66.4,64.6,30.05,North,8,0.0,0.0,94,0.01,,,0.02,meteohub,2013-05-20 21:07:00,
2013-05-20 17:12:00,66.4,64.9,30.05,SW,224,0.0,0.0,95,0.01,,,0.02,meteohub,2013-05-20 21:12:00,
2013-05-20 17:17:00,66.2,64.8,30.06,SW,224,0.0,1.0,95,0.01,,,0.02,meteohub,2013-05-20 21:17:00,
2013-05-20 17:22:00,66.2,64.8,30.06,SW,224,0.0,1.0,95,0.00,,,0.02,meteohub,2013-05-20 21:22:00,
2013-05-20 17:27:00,66.0,64.6,30.05,SW,229,2.0,2.0,95,0.00,,,0.02,meteohub,2013-05-20 21:27:00,
2013-05-20 17:32:00,66.0,64.6,30.05,SW,229,0.0,2.0,95,0.00,,,0.02,meteohub,2013-05-20 21:32:00,
2013-05-20 17:37:00,66.0,64.6,30.05,SW,231,0.0,2.0,95,0.00,,,0.02,meteohub,2013-05-20 21:37:00,
2013-05-20 17:42:00,65.8,64.4,30.06,SW,231,0.0,2.0,95,0.00,,,0.02,meteohub,2013-05-20 21:42:00,
2013-05-20 17:47:00,65.7,64.2,30.05,East,86,0.0,1.0,95,0.00,,,0.02,meteohub,2013-05-20 21:47:00,
2013-05-20 17:52:00,65.5,64.0,30.05,East,86,0.0,1.0,95,0.00,,,0.02,meteohub,2013-05-20 21:52:00,
2013-05-20 17:57:00,65.1,63.3,30.06,East,86,0.0,1.0,94,0.00,,,0.02,meteohub,2013-05-20 21:57:00,
2013-05-20 18:02:00,64.9,63.5,30.06,East,87,0.0,1.0,95,0.00,,,0.02,meteohub,2013-05-20 22:02:00,
2013-05-20 18:07:00,64.9,63.5,30.06,East,87,0.0,0.0,95,0.00,,,0.02,meteohub,2013-05-20 22:07:00,
2013-05-20 18:12:00,64.8,63.3,30.05,East,88,0.0,0.0,95,0.00,,,0.02,meteohub,2013-05-20 22:12:00,
2013-05-20 18:17:00,64.8,63.3,30.05,East,87,0.0,0.0,95,0.00,,,0.02,meteohub,2013-05-20 22:17:00,
2013-05-20 18:22:00,64.6,62.8,30.05,East,87,0.0,0.0,94,0.00,,,0.02,meteohub,2013-05-20 22:22:00,
2013-05-20 18:27:00,64.6,63.1,30.05,East,87,0.0,0.0,95,0.00,,,0.02,meteohub,2013-05-20 22:27:00,
2013-05-20 18:32:00,64.6,63.1,30.04,South,184,0.0,0.0,95,0.00,,,0.02,meteohub,2013-05-20 22:32:00,
2013-05-20 18:37:00,64.2,62.8,30.05,South,184,0.0,0.0,95,0.00,,,0.02,meteohub,2013-05-20 22:37:00,
2013-05-20 18:42:00,64.2,62.8,30.05,South,184,0.0,0.0,95,0.00,,,0.02,meteohub,2013-05-20 22:42:00,
2013-05-20 18:47:00,64.2,62.8,30.04,South,184,0.0,0.0,95,0.00,,,0.02,meteohub,2013-05-20 22:47:00,
2013-05-20 18:52:00,64.2,62.8,30.04,South,184,0.0,0.0,95,0.00,,,0.02,meteohub,2013-05-20 22:52:00,
2013-05-20 18:57:00,64.2,62.8,30.04,South,184,0.0,0.0,95,0.00,,,0.02,meteohub,2013-05-20 22:57:00,
2013-05-20 19:02:00,64.2,63.1,30.04,South,184,0.0,0.0,96,0.00,,,0.02,meteohub,2013-05-20 23:02:00,
2013-05-20 19:07:00,64.2,63.1,30.04,South,184,0.0,0.0,96,0.00,,,0.02,meteohub,2013-05-20 23:07:00,
2013-05-20 19:12:00,64.2,63.1,30.04,South,184,0.0,0.0,96,0.00,,,0.02,meteohub,2013-05-20 23:12:00,
2013-05-20 19:17:00,64.2,63.1,30.04,South,184,0.0,0.0,96,0.00,,,0.02,meteohub,2013-05-20 23:17:00,
2013-05-20 19:22:00,64.2,63.1,30.04,South,184,0.0,0.0,96,0.00,,,0.02,meteohub,2013-05-20 23:22:00,
2013-05-20 19:27:00,64.2,63.1,30.04,South,185,0.0,0.0,96,0.00,,,0.02,meteohub,2013-05-20 23:27:00,
2013-05-20 19:32:00,64.2,63.1,30.04,South,184,0.0,0.0,96,0.00,,,0.02,meteohub,2013-05-20 23:32:00,
2013-05-20 19:37:00,64.2,63.1,30.04,South,184,0.0,0.0,96,0.00,,,0.02,meteohub,2013-05-20 23:37:00,
2013-05-20 19:42:00,64.0,63.0,30.04,South,184,0.0,0.0,96,0.00,,,0.02,meteohub,2013-05-20 23:42:00,
2013-05-20 19:47:00,64.0,63.0,30.03,South,184,0.0,0.0,96,0.00,,,0.02,meteohub,2013-05-20 23:47:00,
2013-05-20 19:52:00,64.0,63.0,30.03,South,184,0.0,0.0,96,0.00,,,0.02,meteohub,2013-05-20 23:52:00,
2013-05-20 19:57:00,64.0,63.0,30.03,South,184,0.0,0.0,96,0.00,,,0.02,meteohub,2013-05-20 23:57:00,
2013-05-20 20:02:00,64.0,63.0,30.03,South,184,0.0,0.0,96,0.00,,,0.02,meteohub,2013-05-21 00:02:00,
2013-05-20 20:07:00,64.0,63.0,30.04,South,184,0.0,0.0,96,0.00,,,0.00,meteohub,2013-05-21 00:07:00,
2013-05-20 20:12:00,63.9,62.8,30.04,South,184,0.0,0.0,96,0.00,,,0.00,meteohub,2013-05-21 00:12:00,
2013-05-20 20:17:00,63.9,62.8,30.04,South,184,0.0,0.0,96,0.00,,,0.00,meteohub,2013-05-21 00:17:00,
2013-05-20 20:22:00,63.9,63.0,30.04,South,184,0.0,0.0,97,0.00,,,0.00,meteohub,2013-05-21 00:22:00,
2013-05-20 20:27:00,63.9,63.0,30.04,South,184,0.0,0.0,97,0.00,,,0.00,meteohub,2013-05-21 00:27:00,
2013-05-20 20:32:00,63.9,63.0,30.04,South,184,0.0,0.0,97,0.00,,,0.00,meteohub,2013-05-21 00:32:00,
2013-05-20 20:37:00,63.9,63.0,30.04,South,184,0.0,0.0,97,0.00,,,0.00,meteohub,2013-05-21 00:37:00,
2013-05-20 20:42:00,63.7,62.8,30.04,South,184,0.0,0.0,97,0.00,,,0.00,meteohub,2013-05-21 00:42:00,
2013-05-20 20:47:00,63.5,62.6,30.04,South,184,0.0,0.0,97,0.00,,,0.00,meteohub,2013-05-21 00:47:00,
2013-05-20 20:52:00,63.3,62.4,30.04,South,184,0.0,0.0,97,0.00,,,0.00,meteohub,2013-05-21 00:52:00,
2013-05-20 20:57:00,63.1,62.1,30.05,South,184,0.0,0.0,96,0.00,,,0.00,meteohub,2013-05-21 00:57:00,
2013-05-20 21:01:00,63.0,62.1,30.05,South,184,0.0,0.0,97,0.00,,,0.00,meteohub,2013-05-21 01:01:00,
2013-05-20 21:06:00,62.8,61.9,30.04,South,184,0.0,0.0,97,0.00,,,0.00,meteohub,2013-05-21 01:06:00,
2013-05-20 21:12:00,62.6,61.7,30.04,South,184,0.0,0.0,97,0.00,,,0.00,meteohub,2013-05-21 01:12:00,
2013-05-20 21:17:00,62.4,61.5,30.04,South,184,0.0,0.0,97,0.00,,,0.00,meteohub,2013-05-21 01:17:00,
2013-05-20 21:22:00,62.2,61.3,30.05,South,184,0.0,0.0,97,0.00,,,0.00,meteohub,2013-05-21 01:22:00,
2013-05-20 21:27:00,62.1,61.2,30.05,South,184,0.0,0.0,97,0.00,,,0.00,meteohub,2013-05-21 01:27:00,
2013-05-20 21:32:00,62.1,61.2,30.05,South,184,0.0,0.0,97,0.00,,,0.00,meteohub,2013-05-21 01:32:00,
2013-05-20 21:37:00,62.1,61.2,30.04,South,184,0.0,0.0,97,0.00,,,0.00,meteohub,2013-05-21 01:37:00,
2013-05-20 21:42:00,61.9,61.0,30.04,South,184,0.0,0.0,97,0.00,,,0.00,meteohub,2013-05-21 01:42:00,
2013-05-20 21:47:00,61.7,60.8,30.05,South,184,0.0,0.0,97,0.00,,,0.00,meteohub,2013-05-21 01:47:00,
2013-05-20 21:52:00,61.5,60.6,30.05,South,184,0.0,0.0,97,0.00,,,0.00,meteohub,2013-05-21 01:52:00,
2013-05-20 21:57:00,61.3,60.4,30.05,South,184,0.0,0.0,97,0.00,,,0.00,meteohub,2013-05-21 01:57:00,
2013-05-20 22:02:00,61.3,60.4,30.05,South,184,0.0,0.0,97,0.00,,,0.00,meteohub,2013-05-21 02:02:00,
2013-05-20 22:07:00,61.3,60.8,30.05,South,184,0.0,0.0,98,0.00,,,0.00,meteohub,2013-05-21 02:07:00,
2013-05-20 22:12:00,61.3,60.4,30.04,South,184,0.0,0.0,97,0.00,,,0.00,meteohub,2013-05-21 02:12:00,
2013-05-20 22:17:00,61.2,60.3,30.05,South,184,0.0,0.0,97,0.00,,,0.00,meteohub,2013-05-21 02:17:00,
2013-05-20 22:22:00,61.0,60.1,30.05,South,184,0.0,0.0,97,0.00,,,0.00,meteohub,2013-05-21 02:22:00,
2013-05-20 22:27:00,60.6,59.7,30.05,South,184,0.0,0.0,97,0.00,,,0.00,meteohub,2013-05-21 02:27:00,
2013-05-20 22:32:00,60.6,59.7,30.06,South,184,0.0,0.0,97,0.00,,,0.00,meteohub,2013-05-21 02:32:00,
2013-05-20 22:37:00,60.6,59.7,30.06,South,184,0.0,0.0,97,0.00,,,0.00,meteohub,2013-05-21 02:37:00,
2013-05-20 22:42:00,60.4,59.5,30.06,South,184,0.0,0.0,97,0.00,,,0.00,meteohub,2013-05-21 02:42:00,
2013-05-20 22:47:00,60.4,59.9,30.06,South,184,0.0,0.0,98,0.00,,,0.00,meteohub,2013-05-21 02:47:00,
2013-05-20 22:52:00,60.4,59.9,30.05,South,184,0.0,0.0,98,0.00,,,0.00,meteohub,2013-05-21 02:52:00,
2013-05-20 22:57:00,60.4,59.9,30.05,South,184,0.0,0.0,98,0.00,,,0.00,meteohub,2013-05-21 02:57:00,
2013-05-20 23:01:00,60.4,59.9,30.06,South,184,0.0,0.0,98,0.00,,,0.00,meteohub,2013-05-21 03:01:00,
2013-05-20 23:06:00,60.4,59.9,30.05,South,184,0.0,0.0,98,0.00,,,0.00,meteohub,2013-05-21 03:06:00,
2013-05-20 23:12:00,60.4,59.9,30.05,South,184,0.0,0.0,98,0.00,,,0.00,meteohub,2013-05-21 03:12:00,
2013-05-20 23:16:00,60.3,59.7,30.05,South,184,0.0,0.0,98,0.00,,,0.00,meteohub,2013-05-21 03:16:00,
2013-05-20 23:21:00,60.3,59.7,30.05,South,184,0.0,0.0,98,0.00,,,0.00,meteohub,2013-05-21 03:21:00,
2013-05-20 23:27:00,60.3,59.7,30.05,South,184,0.0,0.0,98,0.01,,,0.01,meteohub,2013-05-21 03:27:00,
2013-05-20 23:32:00,60.1,59.5,30.05,South,184,0.0,0.0,98,0.01,,,0.01,meteohub,2013-05-21 03:32:00,
2013-05-20 23:37:00,60.1,59.5,30.05,South,184,0.0,0.0,98,0.01,,,0.01,meteohub,2013-05-21 03:37:00,
2013-05-20 23:42:00,60.1,59.5,30.05,South,184,0.0,0.0,98,0.01,,,0.01,meteohub,2013-05-21 03:42:00,
2013-05-20 23:47:00,59.9,59.4,30.04,South,184,0.0,0.0,98,0.01,,,0.01,meteohub,2013-05-21 03:47:00,
2013-05-20 23:52:00,59.9,59.4,30.04,South,184,0.0,0.0,98,0.01,,,0.01,meteohub,2013-05-21 03:52:00,
2013-05-20 23:57:00,59.9,59.4,30.04,South,184,0.0,0.0,98,0.01,,,0.01,meteohub,2013-05-21 03:57:00,